Weather History for Marion, OH

Change the Weather History Date:

Wednesday, May 22, 2013

  Actual Average (KDLZ) Record (KDLZ)
Temperature  
Mean Temperature 73 °F -  
Max Temperature 82 °F 73 °F 92 °F (1941)
Min Temperature 64 °F 50 °F 36 °F (1954)
Cooling Degree Days 8    
Growing Degree Days 23 (Base 50)    
Moisture  
Dew Point 60 °F    
Average Humidity 67    
Maximum Humidity 87    
Minimum Humidity 42    
Precipitation  
Precipitation 0.11 in - - ()
Sea Level Pressure  
Sea Level Pressure 29.77 in    
Wind  
Wind Speed 13 mph (SSW)    
Max Wind Speed 22 mph    
Max Gust Speed 39 mph    
Visibility 10 miles    
Events Rain    
Averages and records for this station are not official NWS values.
T = Trace of Precipitation, MM = Missing Value Source: NWS Daily Summary

Daily Weather History Graph

Daily Weather History Graph

Search for Another Location

Airport:

Trip Planner

Search our weather history database for the weather conditions in past years. The results will help you decide how hot, cold, wet, or windy it might be!

Date:

Astronomy

May. 22, 2013 Rise Set
Actual Time 6:09 AM EDT 8:49 PM EDT
Civil Twilight 5:37 AM EDT 9:20 PM EDT
Nautical Twilight 4:57 AM EDT 10:00 PM EDT
Astronomical Twilight 4:13 AM EDT 10:45 PM EDT
Moon 6:09 PM EDT (5/22) 4:13 AM EDT (5/22)
Length of Visible Light 15h 43m
Length of Day
14h 39m
Waxing Gibbous, 91% of the Moon is Illuminated
May 22
Waxing Gibbous
May 25
Full
May 31
Last Quarter
Jun 8
New
Jun 16
First Quarter

Hourly Weather History & Observations

Time (EDT) Temp. Heat Index Dew Point Humidity Pressure Visibility Wind Dir Wind Speed Gust Speed Precip Events Conditions
12:53 AM 73.9 °F - 61.0 °F 64% 29.81 in 10.0 mi SSW 9.2 mph - N/A   Overcast
1:53 AM 73.0 °F - 61.0 °F 66% 29.81 in 10.0 mi SSW 10.4 mph - N/A   Mostly Cloudy
2:53 AM 68.0 °F - 60.1 °F 76% 29.81 in 10.0 mi SSW 12.7 mph 21.9 mph N/A   Clear
3:53 AM 66.0 °F - 60.1 °F 81% 29.80 in 10.0 mi South 8.1 mph - N/A   Partly Cloudy
4:53 AM 64.9 °F - 60.1 °F 84% 29.80 in 10.0 mi South 8.1 mph - N/A   Partly Cloudy
5:53 AM 64.0 °F - 60.1 °F 87% 29.80 in 10.0 mi South 9.2 mph - N/A   Clear
6:53 AM 64.9 °F - 60.1 °F 84% 29.82 in 10.0 mi South 10.4 mph - N/A   Mostly Cloudy
7:53 AM 66.9 °F - 60.1 °F 79% 29.83 in 10.0 mi SSW 11.5 mph - N/A   Scattered Clouds
8:53 AM 69.1 °F - 61.0 °F 75% 29.81 in 10.0 mi South 13.8 mph - N/A   Clear
9:53 AM 75.0 °F - 61.0 °F 62% 29.80 in 10.0 mi South 15.0 mph 23.0 mph N/A   Clear
10:53 AM 77.0 °F - 60.1 °F 56% 29.79 in 10.0 mi SW 16.1 mph 25.3 mph N/A   Partly Cloudy
11:53 AM 78.1 °F - 61.0 °F 56% 29.78 in 10.0 mi South 18.4 mph 31.1 mph N/A   Mostly Cloudy
12:53 PM 77.0 °F - 60.1 °F 56% 29.78 in 10.0 mi SW 20.7 mph 29.9 mph N/A   Overcast
1:53 PM 77.0 °F - 59.0 °F 54% 29.78 in 10.0 mi SW 18.4 mph 28.8 mph N/A   Scattered Clouds
2:53 PM 80.1 °F 80.7 °F 59.0 °F 48% 29.75 in 10.0 mi SW 17.3 mph 26.5 mph N/A   Clear
3:53 PM 79.0 °F - 57.9 °F 48% 29.74 in 10.0 mi SSW 19.6 mph 29.9 mph N/A   Mostly Cloudy
4:53 PM 82.0 °F 81.7 °F 57.0 °F 42% 29.72 in 10.0 mi SSW 21.9 mph 28.8 mph N/A   Partly Cloudy
5:53 PM 78.1 °F - 59.0 °F 52% 29.71 in 10.0 mi SSW 17.3 mph 27.6 mph N/A   Mostly Cloudy
6:53 PM 78.1 °F - 59.0 °F 52% 29.72 in 10.0 mi SW 16.1 mph 26.5 mph N/A   Scattered Clouds
7:33 PM 73.4 °F - 60.8 °F 65% 29.75 in 1.8 mi West 18.4 mph 39.1 mph 0.09 in Rain Light Rain
7:43 PM 71.6 °F - 60.8 °F 69% 29.75 in 4.0 mi West 18.4 mph 27.6 mph 0.11 in Rain Light Rain
7:53 PM 70.0 °F - 62.1 °F 76% 29.75 in 10.0 mi West 13.8 mph 24.2 mph 0.11 in Rain Light Rain
8:53 PM 71.1 °F - 62.1 °F 73% 29.75 in 10.0 mi WSW 8.1 mph - 0.00 in   Mostly Cloudy
9:53 PM 70.0 °F - 62.1 °F 76% 29.76 in 10.0 mi SW 12.7 mph 19.6 mph N/A   Mostly Cloudy
10:53 PM 66.9 °F - 63.0 °F 87% 29.76 in 10.0 mi SSW 13.8 mph - N/A   Mostly Cloudy
11:53 PM 66.9 °F - 61.0 °F 81% 29.76 in 10.0 mi SW 10.4 mph - N/A   Overcast